Location: Dalton
(42.4737°N, 73.1662°W)
Time: 12:23:41
(UTC+00:00)

ACS3 Solar Sail - Pass Details

Date: 29 September 2024
Orbit: 961 x 1035 km, 97.4° (Epoch: 08 October)

Event Time Altitude Azimuth Distance (km) Brightness Sun altitude
Exits shadow 02:47:11 12° 257° (WSW) 2,703 4.3 -42.5°
Maximum altitude 02:49:04 13° 275° (W) 2,602 4.4 -42.7°
Drops below altitude 10° 02:51:58 10° 302° (WNW) 2,840 4.8 -43.0°
Sets 02:56:10 0° 329° (NNW) 3,789 5.7 -43.5°
